SL-14 DEB, 47080

Orbit data source: Space-Track

SL-14 DEB, 47080 is space debris in LEO originally from a launch on Thu, 15 Aug 1991 UTC launched from the Plesetsk Missile And Space Complex (PKMTR). Debris objects in space refer to the collection of defunct objects orbiting the Earth. Examples of debris include non-operational satellites, rocket bodies, and fragments generated from explosions, collisions, or faulty payload assembly.

Loading next visibility...
Identifier
47080, 1991-056DE
Orbit
LEO
Country
Flag of CISCIS
Related business
Manufacturer
Unknown
Mission
Spacecraft
Bus & Motor
Unknown
Mass
Unknown
Launch date (UTC)
1991-08-15 (34 years ago)
Launch vehicle
Unknown
Launch site
Plesetsk Missile And Space Complex (PKMTR)
Object type
Payload
Rocket body
Debris
Shape & HBR
Unknown shape, 0.1 m
Radar Cross Section
Small (<0.1 m²)

Expand to show TLE details & history
Last TLE update: 15 hours ago

TLE from 15 hours ago
0 SL-14 DEB
1 47080U 91056DE  25310.50461549  .00020159  00000-0  12064-1 0  9996
2 47080  82.5145 144.9906 0134798  79.5998 282.0333 14.02511130250688
Epoch: 2025-11-06T12:06Z
TLE epoch observation values (Epoch: 2025-11-06T12:06:38.778Z)
Latitude
Longitude
-82.63295°
Altitude
868.892 km
Speed
7.428 km/s
True Right ascension
09h 39m 57s
True Declination
0° 00' 00"
Sunlit
Object was in daylight at epoch
Visualization orbit readout
Latitude
Unknown
Longitude
Unknown
Altitude
Unknown
Speed
Unknown
Apparent Right ascension
Unknown
Apparent Declination
Unknown
Sunlit
N/A
Visualization observer readout
Local Sidereal Time
23:10:31
Azimuth
Unknown
Elevation
Unknown
Doppler factor
Unknown
Orbital elements
Apogee altitude
980.108 km
Perigee altitude
784.371 km
Semi-major axis
7,260.377 km
Eccentricity
0.01348
Inclination
82.5145°
RAAN
144.9906°
Arg. of periapsis
79.5998°
True anomaly
280.51742°
Mean anomaly
282.0333°
Eccentric anomaly
281.27587°
Mean motion
3.50836 °/min
Orbital period
102.61 mins
BSTAR
0.012064
Loading maneuver chart data...
Computing Atmospheric mass density...
Loading historical data...
Loading historical data...
Loading historical data...
Loading historical data...
Loading historical data...
Loading historical data...
Loading historical data...

Documentation

Showing up to 5 results
|